Wind_Speed
19 17 17 18 22 27 32 32 30 25 21 21 22 25 27 30 30 29 31 33 32 36 35 39 41 39 31 29 28 22 25 23
19 15 12 16 21 26 29 29 29 26 24 22 24 23 26 28 29 30 30 33 34 34 37 38 36 35 35 33 29 28 21 21
15 10 12 19 22 24 26 27 28 25 21 22 17 20 24 26 29 32 33 35 34 37 39 39 37 30 33 37 33 25 19 25
15 11 15 18 22 27 27 27 24 21 19 20 17 16 13 21 26 25 37 36 39 39 41 37 34 32 36 38 34 29 19 25
15 13 15 21 21 22 24 24 23 19 18 19 18 15 15 14 19 21 34 39 39 40 42 39 35 34 32 36 34 32 25 26
16 13 16 20 21 24 23 21 19 18 21 21 18 14 12 19 14 27 33 32 32 38 38 36 35 34 32 35 34 31 27 26
9 11 18 21 22 22 23 23 20 19 22 20 18 14 12 13 16 23 25 30 30 33 33 33 32 32 36 36 35 32 32 28
9 14 14 22 24 25 24 23 22 20 21 20 18 15 13 13 18 21 27 27 27 28 30 29 28 28 31 31 32 35 34 35
7 12 16 21 24 24 25 25 23 20 20 20 18 16 14 14 18 20 23 28 28 31 29 29 27 23 20 19 27 35 37 33
12 14 15 22 26 25 24 24 22 22 21 20 18 16 15 14 15 19 22 27 30 33 34 31 29 32 35 33 26 33 36 35
9 12 15 20 22 22 22 23 22 22 21 21 19 16 14 13 14 17 20 22 30 34 34 34 34 34 38 37 30 28 30 36
2 6 14 18 19 20 20 22 22 23 23 20 20 17 16 14 14 13 17 22 26 28 30 32 33 35 37 37 34 26 27 31
5 6 10 15 17 19 19 21 22 22 20 18 19 18 18 17 14 15 16 16 17 22 23 27 29 32 32 33 36 34 27 26
4 6 7 9 13 17 19 20 21 19 18 18 17 18 17 18 17 17 17 16 15 16 17 18 20 26 28 30 33 33 37 38
14 5 7 10 13 14 15 17 19 19 17 16 15 17 15 16 16 17 18 19 17 17 17 17 18 19 21 26 29 29 31 32
16 14 11 9 11 12 11 12 14 15 14 14 14 13 13 12 12 13 14 16 18 19 17 17 18 18 19 21 25 29 30 31
14 15 15 13 17 15 16 13 10 11 9 6 7 8 9 10 10 10 10 11 11 12 15 16 16 21 23 24 26 28 29 30
14 14 13 16 17 17 18 20 23 22 19 15 14 10 9 5 8 9 11 12 14 14 14 15 15 16 19 24 26 27 23 26
12 11 17 19 17 20 20 22 24 21 22 18 15 13 13 11 10 9 8 5 5 5 3 5 13 5 11 20 25 27 31 24
Wind_Direction
269 268 255 222 206 203 201 196 197 192 202 211 221 228 225 222 219 212 203 202 194 187 179 182 180 178 174 173 172 175 175 171
275 271 242 205 193 191 192 183 185 186 193 198 208 210 217 215 212 209 206 196 193 182 183 191 185 176 175 174 167 166 168 168
265 247 208 205 191 185 182 181 181 182 189 193 202 206 219 214 215 211 213 210 199 192 187 184 180 176 170 174 171 163 164 173
256 226 208 203 192 185 180 178 174 182 184 190 203 215 222 213 214 206 209 212 202 193 195 186 180 176 176 178 175 171 164 178
247 226 206 202 191 181 176 175 174 181 184 189 199 207 211 216 211 205 196 202 197 195 187 187 181 179 178 180 180 179 173 176
243 216 204 191 179 172 172 170 172 177 182 191 192 205 218 218 211 186 178 183 172 169 176 181 180 178 179 180 181 184 185 179
237 195 178 177 175 166 168 167 172 176 185 191 195 196 192 184 169 155 153 162 163 173 180 184 179 179 182 183 187 189 189 190
183 178 177 176 175 174 166 170 170 172 182 188 195 190 187 184 175 161 153 154 156 162 167 169 175 182 188 188 188 194 197 203
240 197 179 183 174 176 171 171 168 171 176 184 188 189 184 187 184 167 162 163 167 170 168 169 170 176 187 199 208 204 206 211
278 206 187 183 177 176 175 169 164 169 174 177 177 175 182 181 184 182 164 168 180 188 183 186 192 199 201 204 221 218 214 215
282 196 183 182 178 167 164 168 165 167 170 179 181 179 177 183 185 184 181 173 173 178 190 198 197 197 200 201 217 224 222 223
24 180 172 172 160 161 159 163 161 162 171 172 180 180 182 180 184 186 188 194 188 184 187 188 185 197 201 202 211 222 230 228
43 142 151 153 151 151 158 160 160 165 168 167 174 180 186 190 191 188 186 182 186 195 199 202 205 202 204 207 212 219 225 221
45 105 130 137 146 152 158 161 160 162 165 171 181 181 180 192 196 200 200 196 195 193 193 196 202 211 207 214 213 213 223 235
12 93 116 129 135 141 157 161 161 161 170 178 179 185 186 187 193 197 201 202 199 199 203 206 208 208 212 220 220 218 224 232
17 17 44 70 99 111 135 146 153 156 169 186 190 183 182 187 191 194 196 201 205 205 202 207 211 212 214 215 223 232 236 240
20 22 30 41 50 62 64 57 140 144 150 166 188 192 194 198 196 194 198 204 207 207 209 213 217 229 237 236 237 239 241 241
22 25 24 34 48 53 65 67 74 82 84 75 79 108 107 133 213 220 223 225 226 227 228 227 228 216 230 235 240 240 242 244
23 22 32 35 46 60 60 66 73 66 65 59 57 70 74 76 87 93 96 112 125 146 149 207 172 173 229 233 237 238 239 245
Height
694 694 695 697 701 706 711 718 725 729 736 742 746 749 751 753 755 759 763 767 771 776 780 784 789 798 807 813 819 827 832 838
687 688 689 693 696 700 705 712 719 724 732 737 742 743 746 749 751 754 759 764 766 771 775 782 788 796 801 809 817 824 832 838
681 684 686 689 691 695 701 708 713 720 727 732 737 739 742 744 747 750 754 758 763 765 771 777 785 794 799 806 813 822 828 835
672 678 680 685 687 691 696 703 708 717 722 728 734 737 739 740 742 741 746 751 757 760 766 774 783 790 795 803 809 815 823 831
664 669 673 678 684 691 696 702 706 714 719 725 729 732 734 735 737 736 738 744 748 754 761 769 779 787 794 800 806 812 819 826
656 661 669 675 682 686 694 700 705 711 716 722 726 729 731 733 732 733 736 741 747 750 757 768 776 783 790 796 803 810 816 821
655 659 666 671 680 685 690 696 703 709 714 720 724 726 728 730 731 732 732 739 747 752 759 766 774 781 787 793 800 807 812 819
656 659 662 668 675 680 686 694 701 707 713 718 722 724 726 728 730 731 734 740 746 752 758 765 773 779 786 793 799 805 810 815
656 658 659 667 671 679 684 690 698 706 712 717 721 723 725 728 730 731 733 738 745 752 758 766 773 780 785 792 797 802 807 812
654 656 657 663 668 676 683 690 696 703 711 716 720 722 724 727 730 733 735 739 744 751 757 764 771 777 784 790 794 797 802 807
645 648 654 663 670 676 683 690 695 702 710 715 720 722 725 728 730 734 737 740 743 748 754 761 768 773 780 786 791 794 798 804
653 654 657 663 670 677 683 690 695 702 709 714 719 722 725 728 731 734 737 742 746 750 755 760 764 770 776 782 787 791 795 798
662 661 662 667 670 676 684 689 694 701 707 712 717 721 724 728 731 735 738 742 746 750 754 758 762 766 771 777 781 787 790 793
666 664 666 669 675 678 684 688 692 699 705 711 715 719 722 726 729 733 737 741 745 749 753 757 760 764 767 772 775 780 783 786
674 670 671 674 678 681 686 689 692 697 704 710 714 717 720 724 727 731 735 738 742 746 749 753 757 761 764 767 771 775 778 780
692 686 682 680 681 684 687 691 693 697 703 709 713 716 719 723 726 730 733 737 739 742 746 750 754 757 760 762 765 768 771 773
705 701 695 690 688 690 691 693 695 699 704 709 712 715 718 721 725 728 731 734 737 740 743 746 749 752 754 756 759 761 763 764
712 709 706 703 699 697 696 697 698 702 705 710 711 713 715 718 721 725 728 731 734 736 739 742 745 748 748 750 753 756 758 759
721 718 715 711 707 703 702 701 705 710 711 714 716 716 717 719 721 724 725 727 730 732 735 737 738 740 741 743 745 748 750 753